This is the latest recevied weather packets stored in our database for station/object KE8WAY. If no packets are shown the sender has not sent any weather packets the latest 10 day(s).
| Time | Temp. | Humidity | Pressure | Rain* | Wind** | Luminosity | Snow |
|---|---|---|---|---|---|---|---|
| 1778076329 | 11.11° C | 54% | 1011.1 hPa | 0 mm | - | 568 W/m² | - |
| 1778076027 | 11.11° C | 55% | 1010.7 hPa | 0 mm | - | 458 W/m² | - |
| 1778075723 | 11.11° C | 64% | 1010.7 hPa | 0 mm | - | 564 W/m² | - |
| 1778075419 | 10.56° C | 62% | 1010.8 hPa | 0 mm | - | 569 W/m² | - |
| 1778075116 | 10.56° C | 63% | 1010.7 hPa | 0 mm | - | 447 W/m² | - |
| 1778074812 | 10.56° C | 65% | 1010.7 hPa | 0 mm | - | 525 W/m² | - |
| 1778074509 | 10.56° C | 61% | 1010.9 hPa | 0 mm | - | 327 W/m² | - |
| 1778074201 | 10.56° C | 61% | 1010.5 hPa | 0 mm | - | 439 W/m² | - |
| 1778073898 | 10° C | 63% | 1010.7 hPa | 0 mm | - | 340 W/m² | - |
| 1778073595 | 10° C | 62% | 1010.5 hPa | 0 mm | - | 345 W/m² | - |
| 1778073292 | 10° C | 66% | 1010.5 hPa | 0 mm | - | 328 W/m² | - |
| 1778072989 | 10° C | 63% | 1010.3 hPa | 0 mm | - | 316 W/m² | - |
| 1778072685 | 10° C | 67% | 1010.3 hPa | 0 mm | - | 288 W/m² | - |
| 1778072383 | 9.44° C | 65% | 1010.3 hPa | 0 mm | - | 248 W/m² | - |
| 1778072081 | 9.44° C | 67% | 1010.3 hPa | 0 mm | - | 247 W/m² | - |
| 1778071779 | 9.44° C | 68% | 1010.2 hPa | 0 mm | - | 262 W/m² | - |
| 1778071476 | 8.89° C | 70% | 1010.2 hPa | 0 mm | - | 252 W/m² | - |
| 1778071174 | 8.89° C | 69% | 1010.3 hPa | 0 mm | - | 88 W/m² | - |
| 1778070872 | 9.44° C | 72% | 1010 hPa | 0 mm | - | 124 W/m² | - |
| 1778070569 | 8.89° C | 75% | 1010 hPa | 0 mm | - | 293 W/m² | - |
| 1778070266 | 8.33° C | 81% | 1009.9 hPa | 0 mm | - | 225 W/m² | - |
| 1778069964 | 8.33° C | 81% | 1009.7 hPa | 0 mm | - | 95 W/m² | - |
| 1778069661 | 8.33° C | 83% | 1009.7 hPa | 0 mm | - | 121 W/m² | - |
| 1778069358 | 8.33° C | 84% | 1009.4 hPa | 0 mm | - | 69 W/m² | - |
| 1778069055 | 8.33° C | 86% | 1009.6 hPa | 0 mm | - | 104 W/m² | - |
* Rain latest hour (hover to see other rain measurements)
** Current wind speed in m/s (hover to see current wind gust speed)